AirNav   Air Wisconsin Up To $57,000 Bonus
 
 749 users online  

05XS Johnson Memorial Airport
Wilmot, Arkansas, USA

GOING TO WILMOT?


FAA INFORMATION EFFECTIVE 25 MARCH 2021

Location

FAA Identifier: 05XS
Lat/Long: 33-04-42.6000N 091-33-42.6000W
33-04.710000N 091-33.710000W
33.0785000,-91.5618333
(estimated)
Elevation: 105 ft. / 32 m (estimated)
Variation: 03E (1990)
From city: 1 mile N of WILMOT, AR
Time zone: UTC -5 (UTC -6 during Standard Time)
Zip code: 71676

Airport Operations

Airport use: Private use. Permission required prior to landing
Activation date: 06/1993
Control tower: no
ARTCC: MEMPHIS CENTER
FSS: JONESBORO FLIGHT SERVICE STATION
Attendance: UNATNDD
Segmented circle: no

Nearby radio navigation aids

VOR radial/distance  VOR name  Freq  Var
MONr161/30.0MONTICELLO VOR/DME111.6004E
GLHr223/39.4GREENVILLE VOR/DME114.2504E

 
NDB name  Hdg/Dist  Freq  Var  ID
BASTROP037/25.332903EBQP -... --.- .--.
METCALF235/35.835901WMTQ -- - --.-

Airport Services

Runway Information

Runway 2/20

Dimensions: 2600 x 100 ft. / 792 x 30 m
Surface: turf
RUNWAY 2  RUNWAY 20
Traffic pattern: leftleft
Obstructions: 50 ft. trees, 100 ft. from runway50 ft. trees, 100 ft. from runway

Airport Ownership and Management from official FAA records

Ownership: Privately-owned
Owner: NELDA B. JOHNSON TRUST
PO BOX 295
WILMOT, AR 71676
Phone 870-473-5548
WM. L. JOHNSON FAMILY TRUST.
Manager: JAMES W. JOHNSON
PO BOX 295
WILMOT, AR 71676
Phone 870-473-5548

Airport Operational Statistics

Aircraft based on the field: 2
Single engine airplanes: 2
    

Additional Remarks

FOR CD CTC MEMPHIS ARTCC AT 901-368-8453.

Instrument Procedures

There are no published instrument procedures at 05XS.

Some nearby airports with instrument procedures:

KCRT - Z M Jack Stell Field Airport (17 nm W)
M32 - Lake Village Municipal Airport (20 nm NE)
KBQP - Morehouse Memorial Airport (25 nm SW)
7M1 - Mc Gehee Municipal Airport (34 nm N)
KLLQ - Monticello Municipal Airport/Ellis Field (35 nm N)
 
Loc | Ops | Rwys | IFR | FBO | Links
Com | Nav | Svcs | Stats | Notes
Area around 05XS (Johnson Memorial Airport)
 
Road maps at: MapQuest Bing Google
 
Aerial photo
No photo
 
Sectional chart

 
Airport distance calculator
Flying to Johnson Memorial Airport? Find the distance to fly.

From to 05XS

Sunrise and sunset
Times for 15-Apr-2021
 Local
(UTC-5)
 Zulu
(UTC)
Morning civil twilight06:1211:12
Sunrise06:3711:37
Sunset19:3500:35
Evening civil twilight20:0101:01

Current date and time
Zulu (UTC)  15-Apr-2021 11:56:42
Local (UTC-5)  15-Apr-2021 06:56:42
 
METAR
KBQP 
25nm SW 
151135Z AUTO 05004KT 10SM -DZ SCT090 OVC120 12/10 A3002 RMK AO2 LTG DSNT S P0001 T01150103
KLLQ 
35nm N 
151053Z AUTO 35005KT 10SM BKN100 BKN120 12/10 A3005 RMK AO2 RAE0954 SLP175 P0000 T01170100
KGLH 
38nm NE 
151053Z AUTO 36010KT 10SM OVC100 13/09 A3002 RMK AO2 RAE47 SLP173 P0002 T01330094
KMLU 
41nm SW 
151053Z 05008KT 10SM FEW055 OVC100 14/12 A3001 RMK AO2 SLP160 T01390117
TAF
KLLQ 
35nm N 
150520Z 1506/1606 01003KT P6SM VCSH SCT025 OVC035 TEMPO 1506/1510 -SHRA OVC012 FM151400 04010KT P6SM BKN060 FM160000 05003KT P6SM OVC120
KGLH 
38nm NE 
150526Z 1506/1606 01006KT P6SM OVC040 FM151000 02011KT P6SM SCT035 BKN100 FM151600 02012KT P6SM OVC050 FM152100 01007KT P6SM OVC250
KMLU 
41nm SW 
150539Z 1506/1606 04007KT P6SM SCT012 BKN030 FM151100 03011KT P6SM BKN035 FM160000 04006KT P6SM SCT040 BKN150 BKN250 FM160400 04006KT P6SM SCT040 BKN100 OVC250
NOTAMs
Click for the latest NOTAMs
NOTAMs are issued by the DoD/FAA and will open in a separate window not controlled by AirNav.

 

 
 

Would you like to see your business listed on this page?

 If your business provides an interesting product or service to pilots, flight crews, aircraft, or users of the Johnson Memorial Airport, you should consider listing it here.  To start the listing process, click on the button below
 
Add a business
 

Other Pages about Johnson Memorial Airport

Update a link
 
Copyright © AirNav, LLC. All rights reserved. Privacy Policy  Contact